This is the latest recevied weather packets stored in our database for station/object BG4IKR-13. If no packets are shown the sender has not sent any weather packets the latest 10 day(s).
| Time | Temp. | Humidity | Pressure | Rain* | Wind** | Luminosity | Snow |
|---|---|---|---|---|---|---|---|
| 1777554617 | 21.67° C | 44% | 1009.3 hPa | - | - | - | - |
| 1777553594 | 21.67° C | 44% | 1009.2 hPa | - | - | - | - |
| 1777551451 | 21.67° C | 43% | 1009.2 hPa | - | - | - | - |
| 1777548181 | 22.22° C | 41% | 1008.8 hPa | - | - | - | - |
| 1777547073 | 22.22° C | 41% | 1008.5 hPa | - | - | - | - |
| 1777546039 | 22.22° C | 40% | 1008.3 hPa | - | - | - | - |
| 1777545016 | 22.22° C | 40% | 1008.1 hPa | - | - | - | - |
| 1777544948 | 22.22° C | 40% | 1008.1 hPa | - | - | - | - |
| 1777543900 | 22.78° C | 40% | 1007.9 hPa | - | - | - | - |
| 1777542864 | 23.33° C | 39% | 1007.8 hPa | - | - | - | - |
| 1777541831 | 22.78° C | 39% | 1007.8 hPa | - | - | - | - |
| 1777540809 | 22.78° C | 38% | 1007.9 hPa | - | - | - | - |
| 1777539661 | 22.78° C | 38% | 1007.9 hPa | - | - | - | - |
| 1777538629 | 22.22° C | 38% | 1008 hPa | - | - | - | - |
| 1777537594 | 22.22° C | 38% | 1008.1 hPa | - | - | - | - |
| 1777536567 | 22.22° C | 38% | 1008.3 hPa | - | - | - | - |
| 1777534432 | 21.67° C | 37% | 1008.4 hPa | - | - | - | - |
| 1777533398 | 21.11° C | 38% | 1008.6 hPa | - | - | - | - |
| 1777532364 | 21.11° C | 39% | 1008.8 hPa | - | - | - | - |
| 1777531332 | 21.11° C | 39% | 1009.1 hPa | - | - | - | - |
| 1777530124 | 21.11° C | 39% | 1009.5 hPa | - | - | - | - |
| 1777529092 | 21.11° C | 39% | 1009.8 hPa | - | - | - | - |
| 1777528054 | 20.56° C | 38% | 1010 hPa | - | - | - | - |
| 1777527028 | 20.56° C | 39% | 1010.4 hPa | - | - | - | - |
| 1777525892 | 20.56° C | 39% | 1010.7 hPa | - | - | - | - |
* Rain since midnight (hover to see other rain measurements)
** Current wind speed in m/s (hover to see current wind gust speed)